WBANNO,USDM_WEEK,LONGITUDE,LATITUDE,SMVWC_5_CM_MEAN,SMANOM_5_CM_MEAN,SMPERC_5_CM_30COUNTS,SMPERC_5_CM_70COUNTS,SMVWC_10_CM_MEAN,SMANOM_10_CM_MEAN,SMPERC_10_CM_30COUNTS,SMPERC_10_CM_70COUNTS,SMVWC_20_CM_MEAN,SMANOM_20_CM_MEAN,SMPERC_20_CM_30COUNTS,SMPERC_20_CM_70COUNTS,SMVWC_50_CM_MEAN,SMANOM_50_CM_MEAN,SMPERC_50_CM_30COUNTS,SMPERC_50_CM_70COUNTS,SMVWC_100_CM_MEAN,SMANOM_100_CM_MEAN,SMPERC_100_CM_30COUNTS,SMPERC_100_CM_70COUNTS,SMVWC_TOP_CM_MEAN,SMANOM_TOP_CM_MEAN,SMPERC_TOP_CM_30COUNTS,SMPERC_TOP_CM_70COUNTS,SMVWC_COLUMN_CM_MEAN,SMANOM_COLUMN_CM_MEAN,SMPERC_COLUMN_CM_30COUNTS,SMPERC_COLUMN_CM_70COUNTS
54902,20090606,-93.29,41.56,,,,,,,,,,,,,,,,,,,,,,,,,,,,
54902,20090607,-93.29,41.56,,,,,,,,,,,,,,,,,,,,,,,,,,,,
54902,20090608,-93.29,41.56,,,,,,,,,,,,,,,,,,,,,,,,,,,,
54902,20090609,-93.29,41.56,,,,,,,,,,,,,,,,,,,,,,,,,,,,
54902,20090610,-93.29,41.56,,,,,,,,,,,,,,,,,,,,,,,,,,,,
54902,20090611,-93.29,41.56,0.446,1.01,0,1,0.446,0.98,0,1,0.466,0.85,0,1,0.47,0.67,0,0.978,0.528,0.49,0,0.401,0.446,1.05,0,1,0.471,0.94,0,1
54902,20090612,-93.29,41.56,0.445,1,0,1,0.447,0.97,0,1,0.467,0.85,0,1,0.472,0.68,0,0.981,0.528,0.5,0,0.41,0.446,1.05,0,1,0.472,0.94,0,1
54902,20090613,-93.29,41.56,0.449,1.03,0,1,0.45,1,0,1,0.471,0.88,0,1,0.476,0.75,0,0.994,0.528,0.49,0,0.304,0.45,1.08,0,1,0.475,0.97,0,1
54902,20090614,-93.29,41.56,0.452,1.05,0,1,0.454,1.02,0,1,0.475,0.9,0,1,0.48,0.82,0,1,0.529,0.49,0,0.25,0.453,1.1,0,1,0.478,1,0,1
54902,20090615,-93.29,41.56,0.452,1.04,0,1,0.454,1.01,0,1,0.476,0.88,0,1,0.483,0.85,0,1,0.529,0.5,0,0.274,0.453,1.1,0,1,0.479,1,0,1
54902,20090616,-93.29,41.56,0.452,1.05,0,1,0.454,1,0,1,0.476,0.86,0,1,0.485,0.86,0,1,0.53,0.51,0,0.268,0.453,1.1,0,1,0.479,1,0,1
54902,20090617,-93.29,41.56,0.455,1.08,0,1,0.456,1.01,0,1,0.48,0.88,0,1,0.488,0.9,0,1,0.53,0.51,0,0.232,0.456,1.12,0,1,0.482,1.03,0,1
54902,20090618,-93.29,41.56,0.459,1.12,0,1,0.459,1.03,0,1,0.483,0.9,0,1,0.493,0.95,0,1,0.53,0.51,0,0.167,0.459,1.16,0,1,0.485,1.07,0,1
54902,20090619,-93.29,41.56,0.465,1.17,0,1,0.461,1.06,0,1,0.486,0.92,0,1,0.496,0.98,0,1,0.531,0.52,0,0.196,0.463,1.2,0,1,0.488,1.12,0,1
54902,20090620,-93.29,41.56,0.469,1.21,0,1,0.463,1.08,0,1,0.489,0.94,0,1,0.499,0.99,0,1,0.531,0.53,0,0.315,0.466,1.23,0,1,0.49,1.15,0,1
54902,20090621,-93.29,41.56,0.472,1.23,0,1,0.464,1.09,0,1,0.49,0.95,0,1,0.501,0.98,0,1,0.532,0.55,0,0.429,0.468,1.25,0,1,0.492,1.16,0,1
54902,20090622,-93.29,41.56,0.474,1.25,0,1,0.465,1.1,0,1,0.492,0.97,0,1,0.502,0.97,0,1,0.533,0.57,0,0.536,0.47,1.27,0,1,0.493,1.18,0,1
54902,20090623,-93.29,41.56,0.476,1.25,0,1,0.467,1.12,0,1,0.494,0.98,0,1,0.503,0.97,0,1,0.533,0.59,0,0.673,0.471,1.28,0,1,0.495,1.19,0,1
54902,20090624,-93.29,41.56,0.473,1.23,0,1,0.468,1.12,0,1,0.495,0.97,0,1,0.503,0.94,0,1,0.534,0.62,0,0.815,0.471,1.27,0,1,0.495,1.18,0,1
54902,20090625,-93.29,41.56,0.47,1.2,0,1,0.469,1.13,0,1,0.495,0.97,0,1,0.503,0.9,0,1,0.535,0.64,0,0.94,0.469,1.25,0,1,0.494,1.16,0,1
54902,20090626,-93.29,41.56,0.463,1.14,0,1,0.468,1.12,0,1,0.495,0.96,0,1,0.502,0.87,0,1,0.535,0.65,0,0.988,0.466,1.21,0,1,0.493,1.14,0,1
54902,20090627,-93.29,41.56,0.452,1.06,0,1,0.468,1.11,0,1,0.494,0.93,0,1,0.502,0.85,0,1,0.536,0.66,0,1,0.46,1.16,0,1,0.49,1.1,0,1
54902,20090628,-93.29,41.56,0.437,0.94,0,0.935,0.467,1.11,0,1,0.494,0.92,0,1,0.502,0.83,0,1,0.536,0.66,0,1,0.452,1.09,0,1,0.487,1.06,0,1
54902,20090629,-93.29,41.56,0.416,0.79,0,0.792,0.465,1.09,0,1,0.493,0.91,0,1,0.502,0.82,0,1,0.536,0.66,0,1,0.441,0.99,0,0.982,0.483,1,0,1
54902,20090630,-93.29,41.56,0.392,0.62,0,0.649,0.461,1.06,0,1,0.492,0.89,0,1,0.501,0.81,0,1,0.536,0.66,0,1,0.427,0.87,0,0.839,0.477,0.94,0,1
54902,20090701,-93.29,41.56,0.367,0.44,0,0.506,0.454,1.01,0,1,0.489,0.86,0,1,0.5,0.78,0,1,0.536,0.65,0,0.982,0.411,0.73,0,0.696,0.469,0.85,0,1
54902,20090702,-93.29,41.56,0.34,0.25,0.006,0.363,0.446,0.94,0,1,0.485,0.83,0,1,0.499,0.77,0,1,0.536,0.65,0,0.976,0.393,0.58,0,0.554,0.461,0.77,0,1
54902,20090703,-93.29,41.56,0.316,0.07,0.054,0.22,0.436,0.85,0,1,0.481,0.8,0,1,0.497,0.76,0,1,0.536,0.64,0,0.964,0.376,0.44,0,0.411,0.453,0.69,0,1
54902,20090704,-93.29,41.56,0.294,-0.08,0.101,0.077,0.425,0.76,0,1,0.477,0.77,0,1,0.496,0.75,0,1,0.536,0.62,0,0.911,0.359,0.31,0,0.268,0.445,0.61,0,0.964
54902,20090705,-93.29,41.56,0.281,-0.16,0.101,0,0.419,0.71,0,1,0.473,0.74,0,1,0.494,0.74,0,1,0.535,0.61,0,0.845,0.35,0.23,0,0.125,0.44,0.56,0,0.964
54902,20090706,-93.29,41.56,0.273,-0.19,0.101,0,0.412,0.66,0,1,0.469,0.72,0,1,0.493,0.74,0,1,0.535,0.59,0,0.774,0.343,0.19,0,0,0.436,0.53,0,0.964
54902,20090707,-93.29,41.56,0.27,-0.19,0.101,0,0.406,0.62,0,1,0.465,0.7,0,1,0.491,0.74,0,1,0.534,0.58,0,0.679,0.338,0.16,0,0,0.433,0.52,0,0.964
54902,20090708,-93.29,41.56,0.279,-0.1,0.101,0.089,0.405,0.62,0,1,0.465,0.71,0,1,0.492,0.77,0,1,0.534,0.57,0,0.601,0.342,0.21,0,0.095,0.435,0.55,0,0.964
54902,20090709,-93.29,41.56,0.295,0.04,0.095,0.232,0.408,0.66,0,1,0.466,0.73,0,1,0.492,0.79,0,1,0.534,0.56,0,0.565,0.351,0.31,0,0.238,0.439,0.61,0,0.964
54902,20090710,-93.29,41.56,0.31,0.19,0.048,0.375,0.412,0.72,0,1,0.468,0.75,0,1,0.493,0.82,0,1,0.534,0.56,0,0.548,0.361,0.41,0,0.381,0.444,0.68,0,0.964
54902,20090711,-93.29,41.56,0.329,0.35,0,0.518,0.418,0.79,0,1,0.47,0.79,0,1,0.493,0.84,0,1,0.535,0.55,0,0.595,0.374,0.53,0,0.524,0.449,0.75,0,1
54902,20090712,-93.29,41.56,0.34,0.47,0,0.661,0.419,0.82,0,1,0.472,0.82,0,1,0.494,0.87,0,1,0.535,0.55,0,0.649,0.38,0.61,0,0.667,0.452,0.8,0,1
54902,20090713,-93.29,41.56,0.35,0.57,0,0.804,0.421,0.86,0,1,0.473,0.86,0,1,0.495,0.91,0,1,0.535,0.56,0,0.714,0.385,0.69,0,0.81,0.455,0.85,0,1
54902,20090714,-93.29,41.56,0.357,0.66,0,0.946,0.424,0.9,0,1,0.475,0.89,0,1,0.495,0.95,0,1,0.536,0.56,0,0.81,0.39,0.76,0,0.952,0.457,0.9,0,1
54902,20090715,-93.29,41.56,0.355,0.68,0,1,0.422,0.92,0,1,0.474,0.91,0,1,0.494,0.97,0,1,0.536,0.57,0,0.905,0.388,0.79,0,1,0.456,0.91,0,1
54902,20090716,-93.29,41.56,0.347,0.67,0,1,0.418,0.92,0,1,0.472,0.92,0,1,0.493,0.99,0,1,0.537,0.57,0,0.946,0.383,0.79,0,1,0.454,0.91,0,1
54902,20090717,-93.29,41.56,0.339,0.65,0,1,0.414,0.92,0,1,0.47,0.92,0,1,0.492,1.02,0,1,0.537,0.58,0,0.976,0.377,0.78,0,1,0.451,0.91,0,1
54902,20090718,-93.29,41.56,0.326,0.59,0,1,0.408,0.9,0,1,0.467,0.92,0,1,0.491,1.03,0,1,0.538,0.59,0,0.982,0.367,0.74,0,1,0.446,0.89,0,1
54902,20090719,-93.29,41.56,0.315,0.55,0,0.994,0.402,0.89,0,1,0.463,0.92,0,1,0.489,1.05,0,1,0.538,0.6,0,0.994,0.359,0.71,0,1,0.442,0.87,0,1
54902,20090720,-93.29,41.56,0.306,0.5,0,0.911,0.396,0.88,0,1,0.459,0.92,0,1,0.486,1.05,0,1,0.539,0.61,0,1,0.351,0.68,0,1,0.437,0.86,0,1
54902,20090721,-93.29,41.56,0.298,0.47,0,0.768,0.389,0.86,0,1,0.455,0.93,0,1,0.483,1.06,0,1,0.539,0.62,0,1,0.343,0.66,0,1,0.433,0.84,0,1
54902,20090722,-93.29,41.56,0.291,0.44,0,0.667,0.383,0.85,0,1,0.45,0.94,0,1,0.479,1.05,0,1,0.539,0.62,0,1,0.337,0.63,0,1,0.429,0.83,0,1
54902,20090723,-93.29,41.56,0.284,0.41,0,0.583,0.376,0.83,0,1,0.446,0.94,0,1,0.476,1.05,0,1,0.539,0.63,0,1,0.33,0.6,0,1,0.424,0.81,0,1
54902,20090724,-93.29,41.56,0.279,0.39,0,0.548,0.371,0.82,0,1,0.441,0.96,0,1,0.471,1.04,0,1,0.539,0.63,0,1,0.325,0.59,0,1,0.42,0.8,0,1
54902,20090725,-93.29,41.56,0.276,0.38,0,0.512,0.366,0.81,0,1,0.436,0.97,0,1,0.467,1.02,0,1,0.539,0.64,0,1,0.321,0.58,0,1,0.417,0.79,0,1
54902,20090726,-93.29,41.56,0.272,0.37,0,0.387,0.361,0.79,0,1,0.431,0.98,0,1,0.461,1,0,1,0.539,0.64,0,1,0.317,0.56,0,1,0.413,0.78,0,1
54902,20090727,-93.29,41.56,0.269,0.36,0,0.327,0.356,0.77,0,1,0.426,0.98,0,1,0.454,0.96,0,1,0.539,0.65,0,1,0.313,0.55,0,0.994,0.409,0.76,0,1
54902,20090728,-93.29,41.56,0.267,0.35,0,0.327,0.352,0.75,0,1,0.421,0.99,0,1,0.447,0.91,0,1,0.539,0.65,0,1,0.309,0.53,0,0.893,0.405,0.74,0,1
54902,20090729,-93.29,41.56,0.263,0.33,0,0.286,0.346,0.73,0,1,0.415,0.98,0,1,0.439,0.86,0,1,0.539,0.66,0,1,0.305,0.51,0,0.774,0.4,0.72,0,1
54902,20090730,-93.29,41.56,0.258,0.3,0,0.226,0.341,0.69,0,1,0.408,0.96,0,1,0.43,0.79,0,1,0.539,0.68,0,1,0.299,0.47,0,0.631,0.395,0.69,0,1
54902,20090731,-93.29,41.56,0.253,0.26,0,0.119,0.334,0.66,0,1,0.4,0.94,0,1,0.42,0.71,0,1,0.539,0.69,0,1,0.294,0.43,0,0.488,0.389,0.66,0,1
54902,20090801,-93.29,41.56,0.248,0.22,0,0.012,0.329,0.62,0,1,0.393,0.91,0,1,0.41,0.63,0,0.94,0.539,0.7,0,1,0.288,0.39,0,0.345,0.384,0.62,0,1
54902,20090802,-93.29,41.56,0.243,0.19,0,0,0.323,0.58,0,1,0.386,0.88,0,1,0.401,0.55,0,0.815,0.54,0.72,0,1,0.283,0.35,0,0.202,0.378,0.59,0,1
54902,20090803,-93.29,41.56,0.239,0.16,0,0,0.318,0.55,0,0.929,0.378,0.84,0,1,0.391,0.47,0,0.673,0.54,0.74,0,1,0.279,0.32,0,0.065,0.373,0.57,0,0.952
54902,20090804,-93.29,41.56,0.235,0.14,0,0,0.314,0.53,0,0.81,0.372,0.8,0,1,0.383,0.4,0,0.53,0.54,0.76,0,1,0.275,0.3,0,0.024,0.369,0.54,0,0.821
54902,20090805,-93.29,41.56,0.232,0.11,0,0,0.311,0.5,0,0.673,0.365,0.76,0,1,0.375,0.33,0,0.387,0.54,0.79,0,1,0.271,0.27,0,0,0.365,0.52,0,0.679
54902,20090806,-93.29,41.56,0.229,0.09,0,0,0.307,0.47,0,0.53,0.359,0.72,0,1,0.368,0.27,0,0.244,0.54,0.81,0,1,0.268,0.25,0,0,0.361,0.5,0,0.536
54902,20090807,-93.29,41.56,0.226,0.07,0,0,0.304,0.44,0,0.387,0.354,0.68,0,1,0.361,0.21,0,0.101,0.54,0.83,0,1,0.265,0.23,0,0,0.357,0.47,0,0.393
54902,20090808,-93.29,41.56,0.224,0.06,0,0,0.306,0.46,0,0.381,0.352,0.67,0,1,0.357,0.18,0,0.018,0.54,0.85,0,1,0.265,0.23,0,0.006,0.356,0.47,0,0.387
54902,20090809,-93.29,41.56,0.224,0.06,0,0,0.306,0.46,0,0.381,0.351,0.66,0,1,0.354,0.14,0,0,0.54,0.87,0,1,0.265,0.23,0,0.006,0.355,0.47,0,0.387
54902,20090810,-93.29,41.56,0.225,0.06,0,0,0.309,0.48,0,0.393,0.351,0.66,0,1,0.352,0.13,0,0,0.54,0.88,0,1,0.267,0.25,0,0.077,0.355,0.48,0,0.435
54902,20090811,-93.29,41.56,0.228,0.08,0,0,0.313,0.52,0,0.512,0.351,0.66,0,1,0.352,0.13,0,0,0.539,0.88,0,1,0.271,0.28,0,0.208,0.357,0.51,0,0.565
54902,20090812,-93.29,41.56,0.23,0.1,0,0,0.317,0.55,0,0.649,0.352,0.67,0,1,0.351,0.13,0,0,0.539,0.88,0,1,0.273,0.3,0,0.268,0.358,0.53,0,0.708
54902,20090813,-93.29,41.56,0.233,0.12,0,0,0.32,0.57,0,0.792,0.353,0.67,0,1,0.35,0.12,0,0,0.538,0.87,0,1,0.277,0.32,0,0.268,0.359,0.54,0,0.851
54902,20090814,-93.29,41.56,0.236,0.14,0,0,0.323,0.59,0,0.929,0.355,0.67,0,1,0.351,0.13,0,0,0.538,0.86,0,1,0.279,0.33,0,0.268,0.36,0.55,0,0.994
54902,20090815,-93.29,41.56,0.237,0.14,0,0,0.321,0.56,0,0.821,0.353,0.64,0,1,0.349,0.11,0,0,0.537,0.85,0,1,0.279,0.31,0,0.262,0.359,0.54,0,0.964
54902,20090816,-93.29,41.56,0.237,0.13,0,0,0.32,0.54,0,0.679,0.351,0.6,0,0.994,0.348,0.1,0,0,0.536,0.83,0,1,0.279,0.29,0,0.262,0.359,0.52,0,0.827
54902,20090817,-93.29,41.56,0.237,0.12,0,0,0.318,0.49,0,0.601,0.349,0.55,0,0.946,0.346,0.09,0,0.006,0.536,0.82,0,1,0.277,0.26,0,0.196,0.357,0.48,0,0.69
54902,20090818,-93.29,41.56,0.239,0.12,0,0,0.32,0.48,0,0.601,0.35,0.52,0,0.946,0.347,0.09,0,0.006,0.535,0.8,0,1,0.28,0.24,0,0.107,0.358,0.46,0,0.69
54902,20090819,-93.29,41.56,0.24,0.1,0,0,0.322,0.46,0,0.601,0.351,0.49,0,0.911,0.347,0.09,0,0.006,0.535,0.78,0,1,0.281,0.22,0,0.048,0.359,0.44,0,0.649
54902,20090820,-93.29,41.56,0.242,0.09,0,0,0.325,0.45,0,0.577,0.353,0.45,0,0.857,0.348,0.09,0,0.006,0.534,0.77,0,1,0.284,0.21,0,0.065,0.36,0.41,0,0.512
54902,20090821,-93.29,41.56,0.248,0.1,0,0,0.33,0.45,0,0.565,0.354,0.41,0,0.732,0.348,0.1,0,0.006,0.534,0.75,0,1,0.289,0.22,0,0.065,0.363,0.38,0,0.369
54902,20090822,-93.29,41.56,0.252,0.1,0,0,0.334,0.44,0,0.56,0.356,0.37,0,0.589,0.349,0.1,0,0.006,0.534,0.74,0,1,0.293,0.22,0,0.065,0.365,0.35,0,0.262
54902,20090823,-93.29,41.56,0.255,0.09,0,0,0.337,0.43,0,0.56,0.358,0.33,0,0.452,0.349,0.1,0,0.006,0.533,0.73,0,1,0.296,0.21,0,0.065,0.367,0.31,0,0.256
54902,20090824,-93.29,41.56,0.256,0.08,0,0,0.34,0.42,0,0.554,0.36,0.3,0,0.357,0.35,0.1,0,0,0.533,0.72,0,1,0.298,0.2,0,0.06,0.368,0.27,0,0.25
54902,20090825,-93.29,41.56,0.252,0.03,0,0,0.335,0.35,0,0.411,0.357,0.24,0,0.214,0.347,0.06,0,0,0.532,0.71,0,1,0.293,0.14,0,0.018,0.364,0.2,0,0.107
54902,20090826,-93.29,41.56,0.248,-0.01,0,0,0.331,0.29,0,0.268,0.355,0.18,0,0.107,0.344,0.04,0,0,0.531,0.69,0,1,0.29,0.1,0,0.018,0.362,0.14,0,0.006
54902,20090827,-93.29,41.56,0.259,0.04,0,0.083,0.337,0.31,0,0.256,0.359,0.16,0,0.083,0.351,0.07,0,0.071,0.53,0.68,0,1,0.298,0.13,0,0.095,0.367,0.15,0,0.071
54902,20090828,-93.29,41.56,0.278,0.15,0,0.226,0.35,0.37,0,0.274,0.373,0.21,0,0.208,0.369,0.16,0,0.214,0.531,0.69,0,1,0.314,0.22,0,0.238,0.38,0.24,0,0.214
54902,20090829,-93.29,41.56,0.296,0.25,0,0.369,0.362,0.43,0,0.393,0.386,0.26,0,0.351,0.385,0.23,0,0.357,0.533,0.7,0,1,0.329,0.31,0,0.381,0.392,0.32,0,0.357
54902,20090830,-93.29,41.56,0.314,0.34,0,0.512,0.374,0.49,0,0.536,0.399,0.31,0,0.494,0.402,0.3,0,0.5,0.534,0.71,0,1,0.344,0.4,0,0.524,0.405,0.39,0,0.5
54902,20090831,-93.29,41.56,0.331,0.44,0,0.655,0.387,0.56,0,0.679,0.412,0.36,0,0.637,0.419,0.37,0,0.643,0.536,0.73,0,1,0.359,0.48,0,0.667,0.417,0.47,0,0.643
54902,20090901,-93.29,41.56,0.348,0.54,0,0.798,0.4,0.63,0,0.821,0.425,0.42,0,0.78,0.436,0.43,0,0.786,0.538,0.75,0,1,0.374,0.57,0,0.81,0.43,0.55,0,0.786
54902,20090902,-93.29,41.56,0.363,0.62,0,0.893,0.413,0.7,0,0.964,0.438,0.48,0,0.923,0.453,0.5,0,0.929,0.54,0.77,0,1,0.388,0.65,0,0.952,0.441,0.62,0,0.929
54902,20090903,-93.29,41.56,0.359,0.59,0,0.81,0.415,0.69,0,1,0.444,0.5,0,1,0.461,0.51,0,1,0.542,0.79,0,1,0.387,0.63,0,1,0.444,0.62,0,1
54902,20090904,-93.29,41.56,0.343,0.47,0,0.667,0.409,0.63,0,1,0.439,0.46,0,1,0.458,0.46,0,1,0.543,0.79,0,1,0.376,0.54,0,0.893,0.438,0.56,0,1
54902,20090905,-93.29,41.56,0.328,0.36,0,0.524,0.403,0.57,0,1,0.434,0.42,0,1,0.455,0.42,0,1,0.543,0.78,0,1,0.365,0.46,0,0.75,0.432,0.5,0,1
54902,20090906,-93.29,41.56,0.313,0.26,0,0.381,0.396,0.51,0,0.923,0.43,0.38,0,1,0.451,0.39,0,0.923,0.542,0.77,0,1,0.354,0.38,0,0.607,0.426,0.44,0,0.94
54902,20090907,-93.29,41.56,0.299,0.16,0,0.238,0.389,0.45,0,0.78,0.425,0.35,0,1,0.447,0.35,0,0.78,0.542,0.77,0,1,0.344,0.31,0,0.464,0.42,0.38,0,0.798
54902,20090908,-93.29,41.56,0.286,0.08,0,0.095,0.381,0.39,0,0.637,0.42,0.31,0,0.887,0.443,0.31,0,0.637,0.541,0.76,0,1,0.333,0.23,0,0.321,0.414,0.32,0,0.655
54902,20090909,-93.29,41.56,0.274,0,0,0,0.374,0.34,0,0.494,0.415,0.28,0,0.744,0.438,0.27,0,0.494,0.541,0.75,0,1,0.324,0.16,0,0.179,0.408,0.27,0,0.512
54902,20090910,-93.29,41.56,0.264,-0.07,0,0,0.366,0.28,0,0.351,0.41,0.24,0,0.601,0.433,0.23,0,0.351,0.54,0.74,0,1,0.315,0.1,0,0.036,0.402,0.21,0,0.369
54902,20090911,-93.29,41.56,0.256,-0.13,0,0,0.358,0.22,0,0.208,0.404,0.19,0,0.458,0.427,0.19,0,0.208,0.539,0.73,0,1,0.307,0.04,0,0,0.397,0.16,0,0.226
54902,20090912,-93.29,41.56,0.249,-0.18,0,0,0.35,0.16,0,0.065,0.398,0.15,0,0.315,0.422,0.14,0,0.065,0.538,0.72,0,1,0.299,-0.01,0,0,0.391,0.12,0,0.083
54902,20090913,-93.29,41.56,0.243,-0.22,0,0,0.343,0.11,0,0,0.392,0.11,0,0.173,0.415,0.1,0,0,0.537,0.71,0,1,0.293,-0.06,0,0,0.386,0.07,0,0
54902,20090914,-93.29,41.56,0.239,-0.26,0,0,0.336,0.06,0,0,0.385,0.06,0,0.03,0.409,0.05,0,0,0.537,0.71,0,1,0.287,-0.11,0,0,0.381,0.03,0,0
54902,20090915,-93.29,41.56,0.234,-0.29,0,0,0.329,0.01,0,0,0.379,0.01,0,0,0.402,0,0,0,0.536,0.7,0,1,0.282,-0.15,0,0,0.376,-0.02,0,0
54902,20090916,-93.29,41.56,0.231,-0.33,0,0,0.323,-0.04,0,0,0.372,-0.03,0,0,0.395,-0.05,0,0,0.535,0.7,0,1,0.277,-0.19,0,0,0.371,-0.06,0,0
54902,20090917,-93.29,41.56,0.227,-0.35,0.006,0,0.317,-0.09,0,0,0.366,-0.08,0,0,0.388,-0.1,0,0,0.535,0.71,0,1,0.272,-0.23,0,0,0.367,-0.1,0,0
54902,20090918,-93.29,41.56,0.225,-0.38,0.024,0,0.312,-0.13,0,0,0.36,-0.13,0,0,0.381,-0.14,0,0,0.534,0.71,0,1,0.268,-0.26,0,0,0.362,-0.13,0,0
54902,20090919,-93.29,41.56,0.222,-0.4,0.054,0,0.307,-0.16,0,0,0.353,-0.18,0,0,0.375,-0.19,0.071,0,0.533,0.7,0,1,0.264,-0.29,0,0,0.358,-0.17,0,0
54902,20090920,-93.29,41.56,0.219,-0.42,0.131,0,0.303,-0.2,0,0,0.347,-0.23,0,0,0.368,-0.23,0.208,0,0.533,0.7,0,1,0.261,-0.32,0,0,0.354,-0.21,0,0
54902,20090921,-93.29,41.56,0.217,-0.43,0.268,0,0.299,-0.23,0,0,0.342,-0.28,0.048,0,0.362,-0.27,0.351,0,0.532,0.69,0,1,0.258,-0.35,0.065,0,0.351,-0.25,0,0
54902,20090922,-93.29,41.56,0.216,-0.45,0.387,0,0.3,-0.23,0,0,0.338,-0.33,0.161,0,0.359,-0.3,0.417,0,0.532,0.68,0,1,0.258,-0.36,0.083,0,0.349,-0.27,0,0
54902,20090923,-93.29,41.56,0.215,-0.46,0.53,0,0.303,-0.22,0,0,0.335,-0.37,0.304,0,0.357,-0.32,0.524,0,0.532,0.66,0,1,0.259,-0.36,0.083,0,0.348,-0.28,0,0
54902,20090924,-93.29,41.56,0.215,-0.46,0.661,0,0.304,-0.22,0,0,0.333,-0.4,0.446,0,0.355,-0.35,0.667,0,0.532,0.64,0,1,0.26,-0.37,0.083,0,0.348,-0.3,0,0
54902,20090925,-93.29,41.56,0.22,-0.45,0.738,0.012,0.31,-0.19,0,0.03,0.334,-0.41,0.542,0.018,0.356,-0.36,0.78,0,0.531,0.62,0,1,0.265,-0.34,0.083,0.024,0.35,-0.29,0,0.024
54902,20090926,-93.29,41.56,0.24,-0.33,0.708,0.149,0.324,-0.08,0,0.173,0.346,-0.32,0.542,0.161,0.362,-0.32,0.708,0,0.532,0.6,0,1,0.282,-0.23,0.083,0.167,0.361,-0.21,0,0.167
54902,20090927,-93.29,41.56,0.264,-0.18,0.631,0.292,0.342,0.04,0,0.315,0.359,-0.22,0.542,0.304,0.371,-0.26,0.571,0,0.532,0.58,0,1,0.303,-0.09,0.083,0.31,0.374,-0.12,0,0.31
54902,20090928,-93.29,41.56,0.286,-0.04,0.494,0.435,0.358,0.16,0,0.458,0.373,-0.12,0.494,0.446,0.378,-0.22,0.429,0,0.533,0.57,0,1,0.322,0.04,0.018,0.452,0.385,-0.02,0,0.452
54902,20090929,-93.29,41.56,0.305,0.07,0.375,0.506,0.368,0.24,0,0.601,0.384,-0.03,0.381,0.577,0.382,-0.19,0.363,0,0.533,0.55,0,1,0.337,0.14,0,0.595,0.395,0.05,0,0.554
54902,20090930,-93.29,41.56,0.321,0.17,0.232,0.506,0.377,0.3,0,0.744,0.395,0.06,0.238,0.589,0.385,-0.17,0.256,0,0.533,0.53,0,1,0.349,0.23,0,0.643,0.402,0.1,0,0.554
54902,20091001,-93.29,41.56,0.335,0.27,0.095,0.512,0.387,0.37,0,0.875,0.405,0.14,0.095,0.589,0.388,-0.15,0.113,0,0.533,0.51,0,1,0.361,0.31,0,0.655,0.41,0.16,0,0.554
54902,20091002,-93.29,41.56,0.357,0.4,0,0.643,0.398,0.45,0,0.988,0.416,0.23,0,0.708,0.392,-0.11,0,0,0.533,0.5,0,1,0.378,0.43,0,0.774,0.419,0.23,0,0.667
54902,20091003,-93.29,41.56,0.365,0.44,0,0.649,0.402,0.47,0,0.988,0.42,0.25,0,0.708,0.393,-0.11,0,0,0.533,0.49,0,1,0.383,0.46,0,0.774,0.422,0.25,0,0.667
54902,20091004,-93.29,41.56,0.365,0.44,0,0.649,0.402,0.46,0,0.988,0.422,0.26,0,0.708,0.392,-0.13,0,0,0.533,0.47,0,1,0.384,0.45,0,0.774,0.423,0.24,0,0.667
54902,20091005,-93.29,41.56,0.368,0.44,0,0.649,0.403,0.46,0,0.988,0.424,0.27,0,0.708,0.392,-0.12,0,0,0.532,0.46,0,1,0.385,0.45,0,0.774,0.424,0.24,0,0.667
54902,20091006,-93.29,41.56,0.373,0.46,0,0.72,0.406,0.47,0,0.988,0.428,0.29,0,0.72,0.395,-0.1,0,0,0.531,0.45,0,1,0.39,0.47,0,0.774,0.427,0.25,0,0.708
54902,20091007,-93.29,41.56,0.382,0.51,0,0.863,0.411,0.5,0,0.988,0.433,0.33,0,0.851,0.399,-0.07,0,0,0.531,0.44,0,1,0.397,0.52,0,0.869,0.431,0.28,0,0.851
54902,20091008,-93.29,41.56,0.391,0.56,0,1,0.416,0.53,0,1,0.438,0.36,0,0.994,0.403,-0.03,0,0,0.53,0.43,0,1,0.403,0.55,0,1,0.436,0.31,0,0.994
54902,20091009,-93.29,41.56,0.391,0.55,0,1,0.417,0.53,0,1,0.44,0.37,0,1,0.405,-0.02,0,0,0.529,0.42,0,1,0.404,0.55,0,1,0.437,0.31,0,1
54902,20091010,-93.29,41.56,0.388,0.53,0,1,0.416,0.51,0,1,0.44,0.37,0,1,0.406,-0.02,0,0,0.529,0.41,0,1,0.402,0.53,0,1,0.436,0.3,0,1
54902,20091011,-93.29,41.56,0.386,0.51,0,1,0.415,0.5,0,1,0.439,0.36,0,1,0.406,-0.03,0,0,0.528,0.4,0,1,0.4,0.52,0,1,0.435,0.29,0,1
54902,20091012,-93.29,41.56,0.385,0.51,0,1,0.414,0.5,0,1,0.438,0.36,0,1,0.407,-0.04,0,0,0.527,0.39,0,1,0.4,0.52,0,1,0.434,0.29,0,1
54902,20091013,-93.29,41.56,0.384,0.51,0,1,0.413,0.49,0,1,0.438,0.35,0,1,0.407,-0.05,0,0,0.527,0.38,0,1,0.399,0.52,0,1,0.434,0.29,0,1
54902,20091014,-93.29,41.56,0.382,0.5,0,1,0.411,0.48,0,1,0.436,0.35,0,1,0.405,-0.07,0,0,0.526,0.38,0,1,0.397,0.52,0,1,0.432,0.29,0,1
54902,20091015,-93.29,41.56,0.385,0.53,0,1,0.411,0.48,0,1,0.435,0.35,0,1,0.405,-0.08,0,0,0.525,0.37,0,1,0.398,0.54,0,1,0.432,0.3,0,1
54902,20091016,-93.29,41.56,0.387,0.55,0,1,0.411,0.48,0,1,0.436,0.38,0,1,0.405,-0.08,0,0.006,0.524,0.36,0,1,0.399,0.56,0,1,0.433,0.32,0,1
54902,20091017,-93.29,41.56,0.39,0.58,0,1,0.412,0.5,0,1,0.437,0.4,0,1,0.405,-0.08,0,0.012,0.524,0.35,0,1,0.401,0.6,0,1,0.433,0.35,0,1
54902,20091018,-93.29,41.56,0.393,0.62,0,1,0.413,0.51,0,1,0.438,0.43,0,1,0.405,-0.08,0,0.012,0.523,0.35,0,1,0.403,0.63,0,1,0.434,0.39,0,1
54902,20091019,-93.29,41.56,0.395,0.65,0,1,0.413,0.53,0,1,0.438,0.45,0,1,0.405,-0.08,0,0.012,0.522,0.34,0,1,0.404,0.66,0,1,0.435,0.43,0,1
54902,20091020,-93.29,41.56,0.397,0.67,0,1,0.414,0.55,0,1,0.44,0.48,0,1,0.405,-0.09,0,0.012,0.522,0.34,0,1,0.406,0.68,0,1,0.436,0.47,0,1
54902,20091021,-93.29,41.56,0.399,0.69,0,1,0.416,0.57,0,1,0.441,0.52,0,1,0.406,-0.08,0,0.012,0.521,0.35,0,1,0.407,0.71,0,1,0.436,0.5,0,1
54902,20091022,-93.29,41.56,0.399,0.7,0,1,0.417,0.59,0,1,0.442,0.55,0,1,0.407,-0.07,0,0.018,0.521,0.36,0,1,0.408,0.73,0,1,0.437,0.54,0,1
54902,20091023,-93.29,41.56,0.403,0.74,0,1,0.421,0.64,0,1,0.446,0.6,0,1,0.417,0.02,0,0.156,0.521,0.39,0,1,0.412,0.77,0,1,0.441,0.61,0,1
54902,20091024,-93.29,41.56,0.404,0.77,0,1,0.422,0.66,0,1,0.447,0.63,0,1,0.423,0.07,0,0.292,0.522,0.43,0,1,0.413,0.79,0,1,0.444,0.66,0,1
54902,20091025,-93.29,41.56,0.405,0.79,0,1,0.423,0.68,0,1,0.447,0.65,0,1,0.428,0.13,0,0.423,0.523,0.48,0,1,0.414,0.81,0,1,0.445,0.7,0,1
54902,20091026,-93.29,41.56,0.407,0.82,0,1,0.424,0.7,0,1,0.448,0.68,0,1,0.434,0.18,0,0.548,0.524,0.53,0,1,0.415,0.84,0,1,0.447,0.74,0,1
54902,20091027,-93.29,41.56,0.408,0.85,0,1,0.424,0.72,0,1,0.449,0.7,0,1,0.439,0.23,0,0.643,0.525,0.59,0,1,0.416,0.86,0,1,0.449,0.78,0,1
54902,20091028,-93.29,41.56,0.41,0.89,0,1,0.424,0.74,0,1,0.45,0.72,0,1,0.444,0.28,0,0.708,0.526,0.65,0,1,0.417,0.88,0,1,0.451,0.81,0,1
54902,20091029,-93.29,41.56,0.41,0.93,0,1,0.424,0.76,0,1,0.449,0.73,0,1,0.448,0.32,0,0.744,0.527,0.71,0,1,0.417,0.89,0,1,0.452,0.84,0,1
54902,20091030,-93.29,41.56,0.41,0.98,0,1,0.424,0.78,0,1,0.45,0.75,0,1,0.448,0.33,0,0.738,0.528,0.75,0,1,0.417,0.92,0,1,0.452,0.87,0,1
54902,20091031,-93.29,41.56,0.41,1.03,0,1,0.424,0.81,0,1,0.45,0.77,0,1,0.448,0.33,0,0.738,0.528,0.79,0,1,0.417,0.94,0,1,0.452,0.89,0,1
54902,20091101,-93.29,41.56,0.41,1.07,0,1,0.424,0.83,0,1,0.451,0.78,0,1,0.449,0.34,0,0.75,0.528,0.83,0,1,0.417,0.97,0,1,0.452,0.91,0,1
54902,20091102,-93.29,41.56,0.41,1.12,0,1,0.424,0.84,0,1,0.451,0.79,0,1,0.449,0.35,0,0.768,0.528,0.87,0,1,0.417,1,0,1,0.452,0.93,0,1
54902,20091103,-93.29,41.56,0.409,1.17,0,1,0.424,0.86,0,1,0.451,0.79,0,1,0.449,0.35,0,0.815,0.529,0.9,0,1,0.416,1.04,0,1,0.452,0.96,0,1
54902,20091104,-93.29,41.56,0.408,1.22,0,1,0.424,0.87,0,1,0.451,0.8,0,1,0.45,0.36,0,0.893,0.529,0.92,0,1,0.416,1.09,0,1,0.452,0.98,0,1
54902,20091105,-93.29,41.56,0.407,1.27,0,1,0.424,0.88,0,1,0.451,0.8,0,1,0.45,0.36,0,0.994,0.529,0.95,0,1,0.415,1.12,0,1,0.452,1.01,0,1
54902,20091106,-93.29,41.56,0.398,1.25,0,1,0.419,0.86,0,1,0.446,0.76,0,1,0.446,0.32,0,1,0.53,0.97,0,1,0.409,1.1,0,1,0.448,0.98,0,1
54902,20091107,-93.29,41.56,0.394,1.26,0,1,0.418,0.86,0,1,0.444,0.74,0,1,0.444,0.31,0,1,0.53,0.98,0,1,0.406,1.12,0,1,0.446,0.98,0,1
54902,20091108,-93.29,41.56,0.391,1.28,0,1,0.417,0.87,0,1,0.443,0.74,0,1,0.443,0.31,0,1,0.53,1,0,1,0.404,1.15,0,1,0.445,1,0,1
54902,20091109,-93.29,41.56,0.388,1.28,0,1,0.417,0.9,0,1,0.443,0.75,0,1,0.442,0.31,0,1,0.53,1.01,0,1,0.403,1.17,0,1,0.444,1.01,0,1
54902,20091110,-93.29,41.56,0.385,1.26,0,1,0.416,0.93,0,1,0.442,0.76,0,1,0.442,0.31,0,1,0.53,1.03,0,1,0.401,1.18,0,1,0.443,1.03,0,1
54902,20091111,-93.29,41.56,0.382,1.23,0,1,0.416,0.98,0,1,0.442,0.76,0,1,0.441,0.32,0,1,0.53,1.05,0,1,0.399,1.19,0,1,0.442,1.04,0,1
54902,20091112,-93.29,41.56,0.379,1.18,0,1,0.416,1.03,0,1,0.442,0.77,0,1,0.441,0.32,0,1,0.53,1.06,0,1,0.397,1.19,0,1,0.442,1.05,0,1
54902,20091113,-93.29,41.56,0.375,1.12,0,1,0.415,1.07,0,1,0.441,0.77,0,1,0.441,0.33,0,1,0.53,1.08,0,1,0.395,1.18,0,1,0.441,1.05,0,1
54902,20091114,-93.29,41.56,0.371,1.05,0,1,0.415,1.12,0,1,0.44,0.77,0,1,0.441,0.33,0,1,0.53,1.1,0,1,0.393,1.17,0,1,0.439,1.05,0,1
54902,20091115,-93.29,41.56,0.366,0.98,0,1,0.414,1.16,0,1,0.439,0.76,0,1,0.44,0.33,0,1,0.531,1.12,0,1,0.39,1.14,0,1,0.438,1.05,0,1
54902,20091116,-93.29,41.56,0.361,0.89,0,1,0.413,1.19,0,1,0.437,0.75,0,1,0.44,0.32,0,1,0.531,1.14,0,1,0.387,1.09,0,1,0.436,1.03,0,1
54902,20091117,-93.29,41.56,0.357,0.82,0,1,0.411,1.2,0,1,0.436,0.73,0,1,0.439,0.32,0,1,0.531,1.16,0,1,0.384,1.05,0,1,0.435,1.01,0,1
54902,20091118,-93.29,41.56,0.359,0.83,0,1,0.411,1.22,0,1,0.435,0.73,0,1,0.439,0.32,0,1,0.531,1.18,0,1,0.385,1.05,0,1,0.435,1.02,0,1
54902,20091119,-93.29,41.56,0.362,0.85,0,1,0.411,1.24,0,1,0.434,0.73,0,1,0.439,0.31,0,1,0.531,1.2,0,1,0.387,1.07,0,1,0.435,1.03,0,1